Location: Newark
(58.8333°N, 23.5833°E)
Time: 04:51:58
(UTC+00:00)

S-56A Canister/Altair - Pass Details

Date: 30 November 2019
Orbit: 632 x 2500 km, 38.9° (Epoch: 14 December)

Event Time Altitude Azimuth Distance (km) Brightness Sun altitude
Rises 15:33:13 0° 257° (WSW) 5,725 13.9 -13.3°
Reaches altitude 10° 15:38:30 10° 244° (WSW) 4,414 12.8 -14.0°
Maximum altitude 15:46:00 20° 203° (SSW) 3,121 11.1 -14.9°
Drops below altitude 10° 15:51:56 10° 160° (SSE) 3,374 10.8 -15.6°
Sets 15:55:17 0° 144° (SE) 4,047 11.0 -16.0°
